Weather History for Provincetown, MA

Change the Weather History Date:

Wednesday, October 24, 2012

  Actual Average Record
Temperature  
Mean Temperature 48 °F -  
Max Temperature 57 °F 55 °F 69 °F (1954)
Min Temperature 37 °F 43 °F 35 °F (2003)
Degree Days  
Heating Degree Days 17    
Moisture  
Dew Point 41 °F    
Average Humidity 70    
Maximum Humidity 93    
Minimum Humidity 54    
Precipitation  
Precipitation 0.00 in - - ()
Sea Level Pressure  
Sea Level Pressure 30.17 in    
Wind  
Wind Speed 5 mph (NE)    
Max Wind Speed 14 mph    
Max Gust Speed 18 mph    
Visibility 10 miles    
Events      
Averages and records for this station are not official NWS values.
T = Trace of Precipitation, MM = Missing Value Source: NWS Daily Summary

Daily Weather History Graph

Daily Weather History Graph

Search for Another Location

Airport:

Trip Planner

Search our weather history database for the weather conditions in past years. The results will help you decide how hot, cold, wet, or windy it might be!

Date:

Astronomy

Oct. 24, 2012 Rise Set
Actual Time 7:04 AM EDT 5:44 PM EDT
Civil Twilight 6:35 AM EDT 6:13 PM EDT
Nautical Twilight 6:03 AM EDT 6:46 PM EDT
Astronomical Twilight 5:30 AM EDT 7:18 PM EDT
Moon 3:03 PM EDT (10/24) 1:51 AM EDT (10/24)
Length of Visible Light 11h 37m
Length of Day
10h 40m
Waxing Gibbous, 76% of the Moon is Illuminated
Oct 24
Waxing Gibbous
Oct 29
Full
Nov 6
Last Quarter
Nov 13
New
Nov 20
First Quarter

Hourly Weather History & Observations

Time (EDT) Temp. Windchill Dew Point Humidity Pressure Visibility Wind Dir Wind Speed Gust Speed Precip Events Conditions
12:15 AM 46.4 °F - 44.6 °F 93% 30.12 in 10.0 mi Calm Calm - N/A   Overcast
12:35 AM 46.4 °F - 44.6 °F 93% 30.12 in 10.0 mi Calm Calm - N/A   Overcast
12:55 AM 46.4 °F - 44.6 °F 93% 30.13 in 10.0 mi Calm Calm - N/A   Mostly Cloudy
1:15 AM 44.6 °F - 42.8 °F 93% 30.12 in 10.0 mi Calm Calm - N/A   Mostly Cloudy
1:35 AM 44.6 °F - 42.8 °F 93% 30.13 in 10.0 mi Calm Calm - N/A   Mostly Cloudy
1:55 AM 46.4 °F 44.3 °F 42.8 °F 87% 30.13 in 10.0 mi North 4.6 mph - N/A   Overcast
2:15 AM 53.6 °F - 48.2 °F 82% 30.13 in 10.0 mi North 6.9 mph - N/A   Overcast
2:55 AM 55.4 °F - 46.4 °F 72% 30.13 in 10.0 mi ENE 13.8 mph - N/A   Overcast
3:15 AM 55.4 °F - 42.8 °F 63% 30.13 in 10.0 mi ENE 12.7 mph - N/A   Overcast
3:35 AM 53.6 °F - 42.8 °F 67% 30.13 in 10.0 mi NE 12.7 mph 18.4 mph N/A   Overcast
3:55 AM 53.6 °F - 41.0 °F 62% 30.13 in 10.0 mi ENE 12.7 mph - N/A   Overcast
4:35 AM 53.6 °F - 42.8 °F 67% 30.14 in 10.0 mi ENE 12.7 mph 18.4 mph N/A   Overcast
4:55 AM 53.6 °F - 41.0 °F 62% 30.14 in 10.0 mi ENE 12.7 mph 18.4 mph N/A   Overcast
5:15 AM 53.6 °F - 41.0 °F 62% 30.14 in 10.0 mi ENE 11.5 mph - N/A   Overcast
5:36 AM 51.8 °F - 39.2 °F 62% 30.15 in 10.0 mi ENE 11.5 mph 17.3 mph N/A   Overcast
5:55 AM 51.8 °F - 41.0 °F 67% 30.16 in 10.0 mi ENE 11.5 mph - N/A   Partly Cloudy
6:15 AM 51.8 °F - 39.2 °F 62% 30.17 in 10.0 mi ENE 10.4 mph - N/A   Partly Cloudy
6:35 AM 51.8 °F - 39.2 °F 62% 30.17 in 10.0 mi ENE 11.5 mph - N/A   Scattered Clouds
6:55 AM 51.8 °F - 39.2 °F 62% 30.17 in 10.0 mi NE 11.5 mph 16.1 mph N/A   Scattered Clouds
7:15 AM 51.8 °F - 41.0 °F 67% 30.18 in 10.0 mi ENE 12.7 mph - N/A   Mostly Cloudy
7:35 AM 51.8 °F - 39.2 °F 62% 30.18 in 10.0 mi ENE 9.2 mph - N/A   Scattered Clouds
7:55 AM 51.8 °F - 39.2 °F 62% 30.18 in 10.0 mi ENE 9.2 mph - N/A   Clear
8:15 AM 53.6 °F - 39.2 °F 58% 30.18 in 10.0 mi ENE 10.4 mph - N/A   Clear
8:35 AM 53.6 °F - 39.2 °F 58% 30.19 in 10.0 mi ENE 10.4 mph - N/A   Clear
8:55 AM 53.6 °F - 39.2 °F 58% 30.19 in 10.0 mi NE 11.5 mph - N/A   Clear
9:15 AM 53.6 °F - 41.0 °F 62% 30.19 in 10.0 mi NE 11.5 mph - N/A   Mostly Cloudy
9:55 AM 53.6 °F - 39.2 °F 58% 30.19 in 10.0 mi NE 11.5 mph - N/A   Mostly Cloudy
10:15 AM 55.4 °F - 41.0 °F 58% 30.19 in 10.0 mi ENE 9.2 mph - N/A   Overcast
10:35 AM 55.4 °F - 41.0 °F 58% 30.18 in 10.0 mi NE 8.1 mph - N/A   Mostly Cloudy
10:55 AM 55.4 °F - 41.0 °F 58% 30.19 in 10.0 mi NE 10.4 mph - N/A   Mostly Cloudy
11:15 AM 55.4 °F - 41.0 °F 58% 30.18 in 10.0 mi NE 8.1 mph - N/A   Mostly Cloudy
11:35 AM 55.4 °F - 41.0 °F 58% 30.18 in 10.0 mi ENE 10.4 mph - N/A   Partly Cloudy
11:55 AM 57.2 °F - 42.8 °F 59% 30.18 in 10.0 mi NE 10.4 mph - N/A   Mostly Cloudy
12:35 PM 55.4 °F - 39.2 °F 54% 30.18 in 10.0 mi NE 6.9 mph - N/A   Overcast
1:35 PM 53.6 °F - 41.0 °F 62% 30.16 in 10.0 mi NNE 4.6 mph - N/A   Overcast
2:15 PM 53.6 °F - 41.0 °F 62% 30.16 in 10.0 mi NNE 5.8 mph - N/A   Overcast
2:35 PM 53.6 °F - 39.2 °F 58% 30.16 in 10.0 mi NNE 4.6 mph - N/A   Overcast
2:55 PM 53.6 °F - 39.2 °F 58% 30.17 in 10.0 mi NE 4.6 mph - N/A   Overcast
3:35 PM 53.6 °F - 39.2 °F 58% 30.16 in 10.0 mi NE 5.8 mph - N/A   Overcast
3:55 PM 53.6 °F - 41.0 °F 62% 30.16 in 10.0 mi NE 6.9 mph - N/A   Overcast
4:15 PM 53.6 °F - 41.0 °F 62% 30.15 in 10.0 mi ENE 4.6 mph - N/A   Overcast
4:35 PM 53.6 °F - 41.0 °F 62% 30.15 in 10.0 mi ENE 4.6 mph - N/A   Overcast
5:35 PM 51.8 °F - 41.0 °F 67% 30.17 in 10.0 mi NE 3.5 mph - N/A   Overcast
5:55 PM 51.8 °F - 39.2 °F 62% 30.17 in 10.0 mi Calm Calm - N/A   Overcast
6:15 PM 50.0 °F - 42.8 °F 76% 30.18 in 10.0 mi Calm Calm - N/A   Overcast
6:35 PM 48.2 °F - 42.8 °F 82% 30.19 in 10.0 mi Calm Calm - N/A   Overcast
6:55 PM 48.2 °F - 42.8 °F 82% 30.20 in 10.0 mi Calm Calm - N/A   Overcast
7:15 PM 48.2 °F - 42.8 °F 82% 30.20 in 10.0 mi Calm Calm - N/A   Overcast
7:35 PM 48.2 °F - 41.0 °F 76% 30.20 in 10.0 mi Calm Calm - N/A   Mostly Cloudy
8:15 PM 44.6 °F - 39.2 °F 81% 30.20 in 10.0 mi Calm Calm - N/A   Scattered Clouds
8:35 PM 42.8 °F - 37.4 °F 81% 30.21 in 10.0 mi Calm Calm - N/A   Mostly Cloudy
8:55 PM 42.8 °F - 37.4 °F 81% 30.21 in 10.0 mi Calm Calm - N/A   Mostly Cloudy
9:35 PM 41.0 °F - 37.4 °F 87% 30.23 in 10.0 mi Calm Calm - N/A   Overcast
9:55 PM 42.8 °F - 37.4 °F 81% 30.22 in 10.0 mi Calm Calm - N/A   Mostly Cloudy
10:35 PM 41.0 °F - 37.4 °F 87% 30.22 in 10.0 mi Calm Calm - N/A   Overcast
10:55 PM 41.0 °F - 37.4 °F 87% 30.22 in 10.0 mi Calm Calm - N/A   Scattered Clouds
11:15 PM 39.2 °F - 35.6 °F 87% 30.22 in 10.0 mi Calm Calm - N/A   Clear
11:36 PM 39.2 °F - 35.6 °F 87% 30.23 in 10.0 mi Calm Calm - N/A   Partly Cloudy
11:55 PM 37.4 °F - 33.8 °F 87% 30.22 in 10.0 mi Calm Calm - N/A   Scattered Clouds